Estación Meteorológica Peña el Pijo (Robertgarden) [ 07/12/20 06:08:39 CEST ]

Fecha Hora Presion(HPa) Temp (°C) Humedad % Rocio (°C) Viento ( m/s) Direccion Lluvia 1Hora(mm) Lluvia 24H(mm) LLuvia Total(mm)
2020-Jan-25 01:09:06 1006.900 - - - - N     39.88
2020-Jan-25 02:14:10 1006.700 - - - - N     39.88
2020-Jan-25 03:09:36 1006.200 - - - - N     39.88
2020-Jan-25 04:09:19 1005.800 - - - - N     39.88
2020-Jan-25 05:09:17 1005.600 - - - - N     39.88
2020-Jan-25 06:08:39 1005.500 - - - - N     39.88
2020-Jan-25 07:09:19 1005.500 - - - - N     39.88
2020-Jan-25 08:09:09 1005.800 - - - - N     39.88
2020-Jan-25 09:09:10 1006.300 - - - - N     39.88
2020-Jan-25 10:08:50 1006.400 - - - - N     39.88
2020-Jan-25 11:09:11 1006.700 - - - - N     39.88
2020-Jan-25 12:09:27 1006.500 - - - - N     39.88
2020-Jan-25 13:09:16 1005.600 - - - - N     39.88
2020-Jan-25 14:09:27 1004.900 - - - - N     39.88
2020-Jan-25 15:09:17 1004.300 - - - - N     39.88
2020-Jan-25 16:09:25 1004.200 - - - - N     39.88
2020-Jan-25 17:08:57 1004.000 - - - - N     39.88
2020-Jan-25 18:09:27 1004.400 - - - - N     39.88
2020-Jan-25 19:09:17 1004.800 - - - - N     39.88
2020-Jan-25 20:09:22 1005.300 - - - - N     39.88
2020-Jan-25 21:09:05 1005.800 - - - - N     39.88
2020-Jan-25 22:09:32 1005.800 - - - - N     39.88
2020-Jan-25 23:09:25 1006.100 - - - - N     39.88

Temperatura Máxima:    Temperatura Mínima:
Presión Máxima:1006.900 Hpa    Presión Mínima:1004.000 Hpa


Volver